Year,Month,Day,Hour,Minute,Value (Times are PST for temperature in C)
2015,07,02,00,00,26.00
2015,07,02,00,01,26.00
2015,07,02,00,02,25.90
2015,07,02,00,03,25.90
2015,07,02,00,04,25.90
2015,07,02,00,05,25.90
2015,07,02,00,06,25.90
2015,07,02,00,07,25.90
2015,07,02,00,08,25.90
2015,07,02,00,09,25.90
2015,07,02,00,10,26.00
2015,07,02,00,11,26.00
2015,07,02,00,12,26.00
2015,07,02,00,13,26.00
2015,07,02,00,14,26.10
2015,07,02,00,15,26.10
2015,07,02,00,16,26.00
2015,07,02,00,17,26.00
2015,07,02,00,18,26.00
2015,07,02,00,19,26.00
2015,07,02,00,20,25.90
2015,07,02,00,21,25.90
2015,07,02,00,22,25.90
2015,07,02,00,23,25.90
2015,07,02,00,24,25.90
2015,07,02,00,25,25.90
2015,07,02,00,26,25.90
2015,07,02,00,27,25.90
2015,07,02,00,28,25.90
2015,07,02,00,29,25.90
2015,07,02,00,30,25.90
2015,07,02,00,31,25.90
2015,07,02,00,32,25.90
2015,07,02,00,33,25.90
2015,07,02,00,34,25.90
2015,07,02,00,35,25.90
2015,07,02,00,36,25.90
2015,07,02,00,37,25.90
2015,07,02,00,38,25.90
2015,07,02,00,39,25.90
2015,07,02,00,40,25.90
2015,07,02,00,41,25.90
2015,07,02,00,42,25.90
2015,07,02,00,43,25.90
2015,07,02,00,44,25.90
2015,07,02,00,45,25.80
2015,07,02,00,46,25.80
2015,07,02,00,47,25.80
2015,07,02,00,48,25.80
2015,07,02,00,49,25.70
2015,07,02,00,50,25.70
2015,07,02,00,51,25.70
2015,07,02,00,52,25.60
2015,07,02,00,53,25.60
2015,07,02,00,54,25.60
2015,07,02,00,55,25.50
2015,07,02,00,56,25.40
2015,07,02,00,57,25.40
2015,07,02,00,58,25.30
2015,07,02,00,59,25.30
2015,07,02,01,00,25.30
2015,07,02,01,01,25.20
2015,07,02,01,02,25.20
2015,07,02,01,03,25.10
2015,07,02,01,04,25.10
2015,07,02,01,05,25.10
2015,07,02,01,06,25.10
2015,07,02,01,07,25.10
2015,07,02,01,08,25.10
2015,07,02,01,09,25.10
2015,07,02,01,10,25.10
2015,07,02,01,11,25.10
2015,07,02,01,12,25.10
2015,07,02,01,13,25.10
2015,07,02,01,14,25.00
2015,07,02,01,15,25.00
2015,07,02,01,16,25.00
2015,07,02,01,17,24.90
2015,07,02,01,18,24.90
2015,07,02,01,19,24.90
2015,07,02,01,20,24.90
2015,07,02,01,21,25.00
2015,07,02,01,22,25.00
2015,07,02,01,23,25.00
2015,07,02,01,24,25.00
2015,07,02,01,25,25.00
2015,07,02,01,26,25.00
2015,07,02,01,27,25.00
2015,07,02,01,28,25.00
2015,07,02,01,29,25.00
2015,07,02,01,30,25.00
2015,07,02,01,31,25.00
2015,07,02,01,32,25.00
2015,07,02,01,33,25.00
2015,07,02,01,34,24.90
2015,07,02,01,35,24.90
2015,07,02,01,36,24.90
2015,07,02,01,37,24.90
2015,07,02,01,38,24.90
2015,07,02,01,39,24.90
2015,07,02,01,40,24.90
2015,07,02,01,41,24.90
2015,07,02,01,42,24.90
2015,07,02,01,43,24.90
2015,07,02,01,44,24.80
2015,07,02,01,45,24.80
2015,07,02,01,46,24.80
2015,07,02,01,47,24.80
2015,07,02,01,48,24.80
2015,07,02,01,49,24.80
2015,07,02,01,50,24.80
2015,07,02,01,51,24.80
2015,07,02,01,52,24.80
2015,07,02,01,53,24.80
2015,07,02,01,54,24.80
2015,07,02,01,55,24.80
2015,07,02,01,56,24.80
2015,07,02,01,57,24.80
2015,07,02,01,58,24.80
2015,07,02,01,59,24.80
2015,07,02,02,00,24.80
2015,07,02,02,01,24.80
2015,07,02,02,02,24.80
2015,07,02,02,03,24.80
2015,07,02,02,04,24.80
2015,07,02,02,05,24.80
2015,07,02,02,06,24.80
2015,07,02,02,07,24.80
2015,07,02,02,08,24.80
2015,07,02,02,09,24.70
2015,07,02,02,10,24.70
2015,07,02,02,11,24.70
2015,07,02,02,12,24.60
2015,07,02,02,13,24.60
2015,07,02,02,14,24.50
2015,07,02,02,15,24.50
2015,07,02,02,16,24.50
2015,07,02,02,17,24.40
2015,07,02,02,18,24.40
2015,07,02,02,19,24.40
2015,07,02,02,20,24.40
2015,07,02,02,21,24.40
2015,07,02,02,22,24.40
2015,07,02,02,23,24.40
2015,07,02,02,24,24.40
2015,07,02,02,25,24.40
2015,07,02,02,26,24.40
2015,07,02,02,27,24.40
2015,07,02,02,28,24.40
2015,07,02,02,29,24.30
2015,07,02,02,30,24.30
2015,07,02,02,31,24.30
2015,07,02,02,32,24.30
2015,07,02,02,33,24.30
2015,07,02,02,34,24.30
2015,07,02,02,35,24.30
2015,07,02,02,36,24.30
2015,07,02,02,37,24.30
2015,07,02,02,38,24.30
2015,07,02,02,39,24.30
2015,07,02,02,40,24.30
2015,07,02,02,41,24.30
2015,07,02,02,42,24.20
2015,07,02,02,43,24.20
2015,07,02,02,44,24.20
2015,07,02,02,45,24.20
2015,07,02,02,46,24.20
2015,07,02,02,47,24.10
2015,07,02,02,48,24.10
2015,07,02,02,49,24.10
2015,07,02,02,50,24.10
2015,07,02,02,51,24.10
2015,07,02,02,52,24.10
2015,07,02,02,53,24.10
2015,07,02,02,54,24.10
2015,07,02,02,55,24.10
2015,07,02,02,56,24.10
2015,07,02,02,57,24.10
2015,07,02,02,58,24.10
2015,07,02,02,59,24.10
2015,07,02,03,00,24.10
2015,07,02,03,01,24.10
2015,07,02,03,02,24.10
2015,07,02,03,03,24.10
2015,07,02,03,04,24.10
2015,07,02,03,05,24.00
2015,07,02,03,06,24.00
2015,07,02,03,07,24.00
2015,07,02,03,08,24.00
2015,07,02,03,09,24.00
2015,07,02,03,10,24.00
2015,07,02,03,11,24.00
2015,07,02,03,12,24.00
2015,07,02,03,13,24.00
2015,07,02,03,14,24.00
2015,07,02,03,15,23.90
2015,07,02,03,16,23.90
2015,07,02,03,17,23.90
2015,07,02,03,18,23.90
2015,07,02,03,19,23.90
2015,07,02,03,20,23.90
2015,07,02,03,21,23.90
2015,07,02,03,22,23.80
2015,07,02,03,23,23.80
2015,07,02,03,24,23.80
2015,07,02,03,25,23.80
2015,07,02,03,26,23.80
2015,07,02,03,27,23.80
2015,07,02,03,28,23.80
2015,07,02,03,29,23.80
2015,07,02,03,30,23.70
2015,07,02,03,31,23.70
2015,07,02,03,32,23.70
2015,07,02,03,33,23.70
2015,07,02,03,34,23.70
2015,07,02,03,35,23.70
2015,07,02,03,36,23.70
2015,07,02,03,37,23.70
2015,07,02,03,38,23.70
2015,07,02,03,39,23.70
2015,07,02,03,40,23.80
2015,07,02,03,41,23.70
2015,07,02,03,42,23.70
2015,07,02,03,43,23.70
2015,07,02,03,44,23.70
2015,07,02,03,45,23.70
2015,07,02,03,46,23.70
2015,07,02,03,47,23.70
2015,07,02,03,48,23.60
2015,07,02,03,49,23.60
2015,07,02,03,50,23.60
2015,07,02,03,51,23.60
2015,07,02,03,52,23.60
2015,07,02,03,53,23.50
2015,07,02,03,54,23.50
2015,07,02,03,55,23.50
2015,07,02,03,56,23.40
2015,07,02,03,57,23.40
2015,07,02,03,58,23.40
2015,07,02,03,59,23.40
2015,07,02,04,00,23.30
2015,07,02,04,01,23.30
2015,07,02,04,02,23.30
2015,07,02,04,03,23.30
2015,07,02,04,04,23.30
2015,07,02,04,05,23.20
2015,07,02,04,06,23.20
2015,07,02,04,07,23.20
2015,07,02,04,08,23.20
2015,07,02,04,09,23.20
2015,07,02,04,10,23.20
2015,07,02,04,11,23.20
2015,07,02,04,12,23.20
2015,07,02,04,13,23.20
2015,07,02,04,14,23.20
2015,07,02,04,15,23.20
2015,07,02,04,16,23.20
2015,07,02,04,17,23.20
2015,07,02,04,18,23.20
2015,07,02,04,19,23.20
2015,07,02,04,20,23.30
2015,07,02,04,21,23.30
2015,07,02,04,22,23.30
2015,07,02,04,23,23.30
2015,07,02,04,24,23.30
2015,07,02,04,25,23.40
2015,07,02,04,26,23.40
2015,07,02,04,27,23.40
2015,07,02,04,28,23.40
2015,07,02,04,29,23.40
2015,07,02,04,30,23.40
2015,07,02,04,31,23.40
2015,07,02,04,32,23.40
2015,07,02,04,33,23.40
2015,07,02,04,34,23.40
2015,07,02,04,35,23.40
2015,07,02,04,36,23.40
2015,07,02,04,37,23.40
2015,07,02,04,38,23.30
2015,07,02,04,39,23.30
2015,07,02,04,40,23.30
2015,07,02,04,41,23.30
2015,07,02,04,42,23.20
2015,07,02,04,43,23.20
2015,07,02,04,44,23.20
2015,07,02,04,45,23.20
2015,07,02,04,46,23.20
2015,07,02,04,47,23.20
2015,07,02,04,48,23.20
2015,07,02,04,49,23.20
2015,07,02,04,50,23.20
2015,07,02,04,51,23.20
2015,07,02,04,52,23.20
2015,07,02,04,53,23.20
2015,07,02,04,54,23.20
2015,07,02,04,55,23.30
2015,07,02,04,56,23.30
2015,07,02,04,57,23.30
2015,07,02,04,58,23.30
2015,07,02,04,59,23.30
2015,07,02,05,00,23.30
2015,07,02,05,01,23.30
2015,07,02,05,02,23.30
2015,07,02,05,03,23.30
2015,07,02,05,04,23.30
2015,07,02,05,05,23.30
2015,07,02,05,06,23.30
2015,07,02,05,07,23.30
2015,07,02,05,08,23.30
2015,07,02,05,09,23.30
2015,07,02,05,10,23.30
2015,07,02,05,11,23.30
2015,07,02,05,12,23.30
2015,07,02,05,13,23.30
2015,07,02,05,14,23.30
2015,07,02,05,15,23.30
2015,07,02,05,16,23.20
2015,07,02,05,17,23.20
2015,07,02,05,18,23.20
2015,07,02,05,19,23.20
2015,07,02,05,20,23.20
2015,07,02,05,21,23.20
2015,07,02,05,22,23.10
2015,07,02,05,23,23.10
2015,07,02,05,24,23.10
2015,07,02,05,25,23.00
2015,07,02,05,26,23.00
2015,07,02,05,27,22.90
2015,07,02,05,28,22.90
2015,07,02,05,29,22.90
2015,07,02,05,30,22.80
2015,07,02,05,31,22.80
2015,07,02,05,32,22.80
2015,07,02,05,33,22.80
2015,07,02,05,34,22.70
2015,07,02,05,35,22.70
2015,07,02,05,36,22.70
2015,07,02,05,37,22.70
2015,07,02,05,38,22.70
2015,07,02,05,39,22.70
2015,07,02,05,40,22.70
2015,07,02,05,41,22.70
2015,07,02,05,42,22.70
2015,07,02,05,43,22.70
2015,07,02,05,44,22.70
2015,07,02,05,45,22.80
2015,07,02,05,46,22.80
2015,07,02,05,47,22.80
2015,07,02,05,48,22.80
2015,07,02,05,49,22.80
2015,07,02,05,50,22.80
2015,07,02,05,51,22.80
2015,07,02,05,52,22.90
2015,07,02,05,53,22.90
2015,07,02,05,54,22.90
2015,07,02,05,55,22.90
2015,07,02,05,56,22.90
2015,07,02,05,57,22.90
2015,07,02,05,58,22.90
2015,07,02,05,59,22.90
2015,07,02,06,00,22.90
2015,07,02,06,01,22.90
2015,07,02,06,02,22.90
2015,07,02,06,03,22.90
2015,07,02,06,04,22.90
2015,07,02,06,05,22.90
2015,07,02,06,06,22.90
2015,07,02,06,07,22.90
2015,07,02,06,08,22.90
2015,07,02,06,09,22.90
2015,07,02,06,10,22.90
2015,07,02,06,11,22.90
2015,07,02,06,12,22.90
2015,07,02,06,13,22.90
2015,07,02,06,14,23.00
2015,07,02,06,15,23.00
2015,07,02,06,16,23.00
2015,07,02,06,17,23.00
2015,07,02,06,18,23.00
2015,07,02,06,19,23.00
2015,07,02,06,20,23.00
2015,07,02,06,21,23.10
2015,07,02,06,22,23.10
2015,07,02,06,23,23.10
2015,07,02,06,24,23.10
2015,07,02,06,25,23.10
2015,07,02,06,26,23.10
2015,07,02,06,27,23.10
2015,07,02,06,28,23.20
2015,07,02,06,29,23.20
2015,07,02,06,30,23.20
2015,07,02,06,31,23.20
2015,07,02,06,32,23.20
2015,07,02,06,33,23.20
2015,07,02,06,34,23.30
2015,07,02,06,35,23.30
2015,07,02,06,36,23.30
2015,07,02,06,37,23.30
2015,07,02,06,38,23.30
2015,07,02,06,39,23.30
2015,07,02,06,40,23.40
2015,07,02,06,41,23.40
2015,07,02,06,42,23.40
2015,07,02,06,43,23.40
2015,07,02,06,44,23.50
2015,07,02,06,45,23.50
2015,07,02,06,46,23.50
2015,07,02,06,47,23.50
2015,07,02,06,48,23.50
2015,07,02,06,49,23.60
2015,07,02,06,50,23.60
2015,07,02,06,51,23.60
2015,07,02,06,52,23.60
2015,07,02,06,53,23.60
2015,07,02,06,54,23.50
2015,07,02,06,55,23.50
2015,07,02,06,56,23.50
2015,07,02,06,57,23.40
2015,07,02,06,58,23.40
2015,07,02,06,59,23.40
2015,07,02,07,00,23.40
2015,07,02,07,01,23.40
2015,07,02,07,02,23.30
2015,07,02,07,03,23.30
2015,07,02,07,04,23.30
2015,07,02,07,05,23.30
2015,07,02,07,06,23.20
2015,07,02,07,07,23.20
2015,07,02,07,08,23.20
2015,07,02,07,09,23.20
2015,07,02,07,10,23.20
2015,07,02,07,11,23.20
2015,07,02,07,12,23.20
2015,07,02,07,13,23.10
2015,07,02,07,14,23.10
2015,07,02,07,15,23.10
2015,07,02,07,16,23.10
2015,07,02,07,17,23.10
2015,07,02,07,18,23.10
2015,07,02,07,19,23.10
2015,07,02,07,20,23.00
2015,07,02,07,21,23.00
2015,07,02,07,22,23.00
2015,07,02,07,23,23.00
2015,07,02,07,24,23.00
2015,07,02,07,25,23.10
2015,07,02,07,26,23.10
2015,07,02,07,27,23.10
2015,07,02,07,28,23.10
2015,07,02,07,29,23.20
2015,07,02,07,30,23.20
2015,07,02,07,31,23.20
2015,07,02,07,32,23.20
2015,07,02,07,33,23.30
2015,07,02,07,34,23.30
2015,07,02,07,35,23.30
2015,07,02,07,36,23.30
2015,07,02,07,37,23.30
2015,07,02,07,38,23.30
2015,07,02,07,39,23.40
2015,07,02,07,40,23.40
2015,07,02,07,41,23.40
2015,07,02,07,42,23.50
2015,07,02,07,43,23.60
2015,07,02,07,44,23.60
2015,07,02,07,45,23.70
2015,07,02,07,46,23.70
2015,07,02,07,47,23.80
2015,07,02,07,48,23.80
2015,07,02,07,49,23.80
2015,07,02,07,50,23.90
2015,07,02,07,51,23.90
2015,07,02,07,52,23.90
2015,07,02,07,53,23.90
2015,07,02,07,54,23.90
2015,07,02,07,55,23.80
2015,07,02,07,56,23.80
2015,07,02,07,57,23.80
2015,07,02,07,58,23.80
2015,07,02,07,59,23.80
2015,07,02,08,00,23.80
2015,07,02,08,01,23.80
2015,07,02,08,02,23.80
2015,07,02,08,03,23.80
2015,07,02,08,04,23.80
2015,07,02,08,05,23.70
2015,07,02,08,06,23.70
2015,07,02,08,07,23.60
2015,07,02,08,08,23.60
2015,07,02,08,09,23.60
2015,07,02,08,10,23.60
2015,07,02,08,11,23.60
2015,07,02,08,12,23.70
2015,07,02,08,13,23.70
2015,07,02,08,14,23.70
2015,07,02,08,15,23.80
2015,07,02,08,16,23.80
2015,07,02,08,17,23.90
2015,07,02,08,18,23.90
2015,07,02,08,19,23.90
2015,07,02,08,20,23.90
2015,07,02,08,21,24.00
2015,07,02,08,22,24.00
2015,07,02,08,23,24.10
2015,07,02,08,24,24.10
2015,07,02,08,25,24.10
2015,07,02,08,26,24.10
2015,07,02,08,27,24.10
2015,07,02,08,28,24.10
2015,07,02,08,29,24.20
2015,07,02,08,30,24.20
2015,07,02,08,31,24.20
2015,07,02,08,32,24.20
2015,07,02,08,33,24.30
2015,07,02,08,34,24.30
2015,07,02,08,35,24.30
2015,07,02,08,36,24.40
2015,07,02,08,37,24.40
2015,07,02,08,38,24.40
2015,07,02,08,39,24.40
2015,07,02,08,40,24.50
2015,07,02,08,41,24.50
2015,07,02,08,42,24.40
2015,07,02,08,43,24.30
2015,07,02,08,44,24.30
2015,07,02,08,45,24.40
2015,07,02,08,46,24.40
2015,07,02,08,47,24.40
2015,07,02,08,48,24.40
2015,07,02,08,49,24.40
2015,07,02,08,50,24.40
2015,07,02,08,51,24.40
2015,07,02,08,52,24.40
2015,07,02,08,53,24.40
2015,07,02,08,54,24.40
2015,07,02,08,55,24.40
2015,07,02,08,56,24.40
2015,07,02,08,57,24.40
2015,07,02,08,58,24.40
2015,07,02,08,59,24.30
2015,07,02,09,00,24.30
2015,07,02,09,01,24.30
2015,07,02,09,02,24.40
2015,07,02,09,03,24.50
2015,07,02,09,04,24.50
2015,07,02,09,05,24.60
2015,07,02,09,06,24.60
2015,07,02,09,07,24.70
2015,07,02,09,08,24.70
2015,07,02,09,09,24.70
2015,07,02,09,10,24.80
2015,07,02,09,11,24.80
2015,07,02,09,12,24.80
2015,07,02,09,13,24.80
2015,07,02,09,14,24.80
2015,07,02,09,15,24.80
2015,07,02,09,16,24.80
2015,07,02,09,17,24.80
2015,07,02,09,18,24.80
2015,07,02,09,19,24.90
2015,07,02,09,20,24.90
2015,07,02,09,21,24.90
2015,07,02,09,22,24.90
2015,07,02,09,23,25.00
2015,07,02,09,24,25.00
2015,07,02,09,25,25.10
2015,07,02,09,26,25.10
2015,07,02,09,27,25.10
2015,07,02,09,28,25.20
2015,07,02,09,29,25.30
2015,07,02,09,30,25.40
2015,07,02,09,31,25.40
2015,07,02,09,32,25.40
2015,07,02,09,33,25.40
2015,07,02,09,34,25.50
2015,07,02,09,35,25.50
2015,07,02,09,36,25.60
2015,07,02,09,37,25.60
2015,07,02,09,38,25.60
2015,07,02,09,39,25.70
2015,07,02,09,40,25.70
2015,07,02,09,41,25.70
2015,07,02,09,42,25.70
2015,07,02,09,43,25.70
2015,07,02,09,44,25.80
2015,07,02,09,45,25.80
2015,07,02,09,46,25.80
2015,07,02,09,47,25.80
2015,07,02,09,48,25.70
2015,07,02,09,49,25.60
2015,07,02,09,50,25.50
2015,07,02,09,51,25.40
2015,07,02,09,52,25.40
2015,07,02,09,53,25.30
2015,07,02,09,54,25.30
2015,07,02,09,55,25.30
2015,07,02,09,56,25.30
2015,07,02,09,57,25.30
2015,07,02,09,58,25.30
2015,07,02,09,59,25.40
2015,07,02,10,00,25.40
2015,07,02,10,01,25.40
2015,07,02,10,02,25.40
2015,07,02,10,03,25.50
2015,07,02,10,04,25.50
2015,07,02,10,05,25.60
2015,07,02,10,06,25.70
2015,07,02,10,07,25.70
2015,07,02,10,08,25.70
2015,07,02,10,09,25.70
2015,07,02,10,10,25.60
2015,07,02,10,11,25.60
2015,07,02,10,12,25.50
2015,07,02,10,13,25.50
2015,07,02,10,14,25.60
2015,07,02,10,15,25.60
2015,07,02,10,16,25.70
2015,07,02,10,17,25.70
2015,07,02,10,18,25.70
2015,07,02,10,19,25.70
2015,07,02,10,20,25.70
2015,07,02,10,21,25.70
2015,07,02,10,22,25.80
2015,07,02,10,23,25.80
2015,07,02,10,24,25.90
2015,07,02,10,25,25.90
2015,07,02,10,26,26.00
2015,07,02,10,27,26.10
2015,07,02,10,28,26.20
2015,07,02,10,29,26.30
2015,07,02,10,30,26.40
2015,07,02,10,31,26.40
2015,07,02,10,32,26.40
2015,07,02,10,33,26.50
2015,07,02,10,34,26.50
2015,07,02,10,35,26.50
2015,07,02,10,36,26.60
2015,07,02,10,37,26.60
2015,07,02,10,38,26.60
2015,07,02,10,39,26.50
2015,07,02,10,40,26.40
2015,07,02,10,41,26.40
2015,07,02,10,42,26.40
2015,07,02,10,43,26.40
2015,07,02,10,44,26.30
2015,07,02,10,45,26.40
2015,07,02,10,46,26.40
2015,07,02,10,47,26.40
2015,07,02,10,48,26.40
2015,07,02,10,49,26.50
2015,07,02,10,50,26.50
2015,07,02,10,51,26.60
2015,07,02,10,52,26.60
2015,07,02,10,53,26.60
2015,07,02,10,54,26.70
2015,07,02,10,55,26.80
2015,07,02,10,56,26.80
2015,07,02,10,57,26.90
2015,07,02,10,58,26.90
2015,07,02,10,59,27.00
2015,07,02,11,00,27.00
2015,07,02,11,01,27.00
2015,07,02,11,02,27.00
2015,07,02,11,03,27.00
2015,07,02,11,04,26.90
2015,07,02,11,05,27.00
2015,07,02,11,06,27.00
2015,07,02,11,07,27.10
2015,07,02,11,08,27.10
2015,07,02,11,09,27.10
2015,07,02,11,10,27.10
2015,07,02,11,11,27.10
2015,07,02,11,12,27.20
2015,07,02,11,13,27.20
2015,07,02,11,14,27.30
2015,07,02,11,15,27.30
2015,07,02,11,16,27.30
2015,07,02,11,17,27.30
2015,07,02,11,18,27.30
2015,07,02,11,19,27.30
2015,07,02,11,20,27.30
2015,07,02,11,21,27.30
2015,07,02,11,22,27.30
2015,07,02,11,23,27.20
2015,07,02,11,24,27.20
2015,07,02,11,25,27.10
2015,07,02,11,26,27.10
2015,07,02,11,27,27.00
2015,07,02,11,28,26.90
2015,07,02,11,29,26.90
2015,07,02,11,30,26.90
2015,07,02,11,31,26.90
2015,07,02,11,32,27.00
2015,07,02,11,33,27.00
2015,07,02,11,34,27.10
2015,07,02,11,35,27.10
2015,07,02,11,36,27.10
2015,07,02,11,37,27.20
2015,07,02,11,38,27.20
2015,07,02,11,39,27.20
2015,07,02,11,40,27.30
2015,07,02,11,41,27.30
2015,07,02,11,42,27.30
2015,07,02,11,43,27.20
2015,07,02,11,44,27.10
2015,07,02,11,45,27.10
2015,07,02,11,46,27.10
2015,07,02,11,47,27.00
2015,07,02,11,48,26.90
2015,07,02,11,49,26.90
2015,07,02,11,50,26.90
2015,07,02,11,51,26.80
2015,07,02,11,52,26.80
2015,07,02,11,53,26.80
2015,07,02,11,54,26.80
2015,07,02,11,55,26.70
2015,07,02,11,56,26.70
2015,07,02,11,57,26.80
2015,07,02,11,58,26.90
2015,07,02,11,59,26.90
2015,07,02,12,00,27.00
2015,07,02,12,01,27.10
2015,07,02,12,02,27.10
2015,07,02,12,03,27.20
2015,07,02,12,04,27.10
2015,07,02,12,05,27.10
2015,07,02,12,06,27.10
2015,07,02,12,07,27.10
2015,07,02,12,08,27.20
2015,07,02,12,09,27.20
2015,07,02,12,10,27.20
2015,07,02,12,11,27.20
2015,07,02,12,12,27.20
2015,07,02,12,13,27.20
2015,07,02,12,14,27.20
2015,07,02,12,15,27.30
2015,07,02,12,16,27.30
2015,07,02,12,17,27.30
2015,07,02,12,18,27.30
2015,07,02,12,19,27.40
2015,07,02,12,20,27.40
2015,07,02,12,21,27.50
2015,07,02,12,22,27.40
2015,07,02,12,23,27.40
2015,07,02,12,24,27.40
2015,07,02,12,25,27.40
2015,07,02,12,26,27.40
2015,07,02,12,27,27.30
2015,07,02,12,28,27.30
2015,07,02,12,29,27.40
2015,07,02,12,30,27.40
2015,07,02,12,31,27.40
2015,07,02,12,32,27.40
2015,07,02,12,33,27.40
2015,07,02,12,34,27.40
2015,07,02,12,35,27.40
2015,07,02,12,36,27.40
2015,07,02,12,37,27.40
2015,07,02,12,38,27.50
2015,07,02,12,39,27.60
2015,07,02,12,40,27.70
2015,07,02,12,41,27.70
2015,07,02,12,42,27.70
2015,07,02,12,43,27.80
2015,07,02,12,44,28.00
2015,07,02,12,45,28.00
2015,07,02,12,46,28.10
2015,07,02,12,47,28.10
2015,07,02,12,48,28.20
2015,07,02,12,49,28.20
2015,07,02,12,50,28.30
2015,07,02,12,51,28.30
2015,07,02,12,52,28.30
2015,07,02,12,53,28.20
2015,07,02,12,54,28.10
2015,07,02,12,55,28.10
2015,07,02,12,56,28.10
2015,07,02,12,57,28.20
2015,07,02,12,58,28.20
2015,07,02,12,59,28.20
2015,07,02,13,00,28.20
2015,07,02,13,01,28.20
2015,07,02,13,02,28.30
2015,07,02,13,03,28.30
2015,07,02,13,04,28.40
2015,07,02,13,05,28.40
2015,07,02,13,06,28.40
2015,07,02,13,07,28.50
2015,07,02,13,08,28.40
2015,07,02,13,09,28.50
2015,07,02,13,10,28.50
2015,07,02,13,11,28.60
2015,07,02,13,12,28.60
2015,07,02,13,13,28.60
2015,07,02,13,14,28.60
2015,07,02,13,15,28.60
2015,07,02,13,16,28.70
2015,07,02,13,17,28.70
2015,07,02,13,18,28.80
2015,07,02,13,19,28.80
2015,07,02,13,20,28.80
2015,07,02,13,21,28.70
2015,07,02,13,22,28.80
2015,07,02,13,23,28.80
2015,07,02,13,24,28.80
2015,07,02,13,25,28.80
2015,07,02,13,26,28.90
2015,07,02,13,27,28.90
2015,07,02,13,28,28.90
2015,07,02,13,29,28.90
2015,07,02,13,30,28.90
2015,07,02,13,31,28.90
2015,07,02,13,32,28.90
2015,07,02,13,33,28.90
2015,07,02,13,34,28.90
2015,07,02,13,35,29.00
2015,07,02,13,36,28.90
2015,07,02,13,37,28.90
2015,07,02,13,38,28.80
2015,07,02,13,39,28.80
2015,07,02,13,40,28.70
2015,07,02,13,41,28.70
2015,07,02,13,42,28.70
2015,07,02,13,43,28.80
2015,07,02,13,44,28.80
2015,07,02,13,45,28.80
2015,07,02,13,46,28.80
2015,07,02,13,47,28.80
2015,07,02,13,48,28.80
2015,07,02,13,49,28.80
2015,07,02,13,50,28.80
2015,07,02,13,51,28.80
2015,07,02,13,52,28.90
2015,07,02,13,53,29.00
2015,07,02,13,54,29.10
2015,07,02,13,55,29.20
2015,07,02,13,56,29.30
2015,07,02,13,57,29.30
2015,07,02,13,58,29.30
2015,07,02,13,59,29.30
2015,07,02,14,00,29.40
2015,07,02,14,01,29.40
2015,07,02,14,02,29.40
2015,07,02,14,03,29.40
2015,07,02,14,04,29.40
2015,07,02,14,05,29.40
2015,07,02,14,06,29.50
2015,07,02,14,07,29.50
2015,07,02,14,08,29.60
2015,07,02,14,09,29.60
2015,07,02,14,10,29.60
2015,07,02,14,11,29.50
2015,07,02,14,12,29.40
2015,07,02,14,13,29.30
2015,07,02,14,14,29.30
2015,07,02,14,15,29.20
2015,07,02,14,16,29.20
2015,07,02,14,17,29.20
2015,07,02,14,18,29.20
2015,07,02,14,19,29.20
2015,07,02,14,20,29.20
2015,07,02,14,21,29.20
2015,07,02,14,22,29.20
2015,07,02,14,23,29.20
2015,07,02,14,24,29.20
2015,07,02,14,25,29.30
2015,07,02,14,26,29.30
2015,07,02,14,27,29.20
2015,07,02,14,28,29.20
2015,07,02,14,29,29.20
2015,07,02,14,30,29.30
2015,07,02,14,31,29.30
2015,07,02,14,32,29.40
2015,07,02,14,33,29.40
2015,07,02,14,34,29.40
2015,07,02,14,35,29.50
2015,07,02,14,36,29.50
2015,07,02,14,37,29.60
2015,07,02,14,38,29.70
2015,07,02,14,39,29.80
2015,07,02,14,40,29.90
2015,07,02,14,41,29.90
2015,07,02,14,42,30.00
2015,07,02,14,43,30.10
2015,07,02,14,44,30.20
2015,07,02,14,45,30.20
2015,07,02,14,46,30.10
2015,07,02,14,47,30.10
2015,07,02,14,48,30.00
2015,07,02,14,49,30.00
2015,07,02,14,50,30.00
2015,07,02,14,51,29.90
2015,07,02,14,52,29.90
2015,07,02,14,53,30.00
2015,07,02,14,54,30.00
2015,07,02,14,55,30.00
2015,07,02,14,56,29.90
2015,07,02,14,57,29.90
2015,07,02,14,58,29.80
2015,07,02,14,59,29.80
2015,07,02,15,00,29.80
2015,07,02,15,01,29.80
2015,07,02,15,02,29.80
2015,07,02,15,03,29.90
2015,07,02,15,04,29.80
2015,07,02,15,05,29.80
2015,07,02,15,06,29.80
2015,07,02,15,07,29.70
2015,07,02,15,08,29.60
2015,07,02,15,09,29.60
2015,07,02,15,10,29.60
2015,07,02,15,11,29.60
2015,07,02,15,12,29.60
2015,07,02,15,13,29.70
2015,07,02,15,14,29.80
2015,07,02,15,15,29.90
2015,07,02,15,16,30.00
2015,07,02,15,17,30.00
2015,07,02,15,18,30.10
2015,07,02,15,19,30.10
2015,07,02,15,20,30.10
2015,07,02,15,21,30.20
2015,07,02,15,22,30.20
2015,07,02,15,23,30.20
2015,07,02,15,24,30.20
2015,07,02,15,25,30.20
2015,07,02,15,26,30.30
2015,07,02,15,27,30.30
2015,07,02,15,28,30.30
2015,07,02,15,29,30.40
2015,07,02,15,30,30.40
2015,07,02,15,31,30.50
2015,07,02,15,32,30.60
2015,07,02,15,33,30.60
2015,07,02,15,34,30.60
2015,07,02,15,35,30.60
2015,07,02,15,36,30.60
2015,07,02,15,37,30.60
2015,07,02,15,38,30.50
2015,07,02,15,39,30.50
2015,07,02,15,40,30.40
2015,07,02,15,41,30.40
2015,07,02,15,42,30.40
2015,07,02,15,43,30.40
2015,07,02,15,44,30.40
2015,07,02,15,45,30.40
2015,07,02,15,46,30.40
2015,07,02,15,47,30.40
2015,07,02,15,48,30.40
2015,07,02,15,49,30.40
2015,07,02,15,50,30.50
2015,07,02,15,51,30.50
2015,07,02,15,52,30.60
2015,07,02,15,53,30.60
2015,07,02,15,54,30.60
2015,07,02,15,55,30.60
2015,07,02,15,56,30.60
2015,07,02,15,57,30.60
2015,07,02,15,58,30.60
2015,07,02,15,59,30.60
2015,07,02,16,00,30.60
2015,07,02,16,01,30.60
2015,07,02,16,02,30.70
2015,07,02,16,03,30.70
2015,07,02,16,04,30.70
2015,07,02,16,05,30.80
2015,07,02,16,06,30.80
2015,07,02,16,07,30.90
2015,07,02,16,08,30.90
2015,07,02,16,09,31.00
2015,07,02,16,10,31.00
2015,07,02,16,11,31.00
2015,07,02,16,12,31.10
2015,07,02,16,13,31.10
2015,07,02,16,14,31.00
2015,07,02,16,15,30.90
2015,07,02,16,16,31.00
2015,07,02,16,17,31.00
2015,07,02,16,18,31.10
2015,07,02,16,19,31.10
2015,07,02,16,20,31.10
2015,07,02,16,21,31.10
2015,07,02,16,22,31.10
2015,07,02,16,23,31.20
2015,07,02,16,24,31.20
2015,07,02,16,25,31.30
2015,07,02,16,26,31.30
2015,07,02,16,27,31.30
2015,07,02,16,28,31.30
2015,07,02,16,29,31.30
2015,07,02,16,30,31.30
2015,07,02,16,31,31.30
2015,07,02,16,32,31.30
2015,07,02,16,33,31.30
2015,07,02,16,34,31.40
2015,07,02,16,35,31.40
2015,07,02,16,36,31.40
2015,07,02,16,37,31.40
2015,07,02,16,38,31.50
2015,07,02,16,39,31.50
2015,07,02,16,40,31.50
2015,07,02,16,41,31.50
2015,07,02,16,42,31.50
2015,07,02,16,43,31.50
2015,07,02,16,44,31.40
2015,07,02,16,45,31.40
2015,07,02,16,46,31.40
2015,07,02,16,47,31.30
2015,07,02,16,48,31.30
2015,07,02,16,49,31.40
2015,07,02,16,50,31.40
2015,07,02,16,51,31.50
2015,07,02,16,52,31.50
2015,07,02,16,53,31.50
2015,07,02,16,54,31.40
2015,07,02,16,55,31.40
2015,07,02,16,56,31.40
2015,07,02,16,57,31.30
2015,07,02,16,58,31.30
2015,07,02,16,59,31.30
2015,07,02,17,00,31.30
2015,07,02,17,01,31.30
2015,07,02,17,02,31.40
2015,07,02,17,03,31.40
2015,07,02,17,04,31.50
2015,07,02,17,05,31.60
2015,07,02,17,06,31.50
2015,07,02,17,07,31.50
2015,07,02,17,08,31.40
2015,07,02,17,09,31.40
2015,07,02,17,10,31.40
2015,07,02,17,11,31.50
2015,07,02,17,12,31.40
2015,07,02,17,13,31.40
2015,07,02,17,14,31.50
2015,07,02,17,15,31.50
2015,07,02,17,16,31.50
2015,07,02,17,17,31.50
2015,07,02,17,18,31.50
2015,07,02,17,19,31.50